Weather in Zalegoshch

Russia / Oryol Oblast     52°54′06″N   36°53′30″E
temp.,
°C
wind,
m/s
gust,
m/s
humid.,
%
clouds,
%
prec.,
mm/h
press.,
hPa
HPBL,
m
22 october, fri
fri2200:00+11sw91768100 0.0 1002697
03:00+10sw91874100 0.0 1001706
06:00+10sw81673100 0.0 1001550
09:00+11sw8157191 0.0 1002830
12:00+14wsw9156624 0.0 10041621
15:00+13wsw815565 0.1 10051916
18:00+11wsw713624 0.1 1007699
21:00+9wsw512645 0.1 1009463
23 october, sat
sat2300:00+7wsw613665 0.0 1009494
03:00+6sw512675 0.0 1009407
06:00+5sw614645 0.0 1009463
09:00+6sw613634 0.0 1009695
12:00+9wsw8125313 0.0 10091373
15:00+8wsw7125787 0.0 10101633
18:00+6wsw612795 0.2 1012787
21:00+4wsw613785 0.2 1013662
24 october, sun
sun2400:00+4w7138137 0.0 1014724
03:00+5wsw61274100 0.0 1014595
06:00+5wsw71278100 0.0 1014769
09:00+5w71168100 0.1 10151217
12:00+6wnw7967100 0.2 10161203
15:00+3wnw61095100 0.9 1017703
18:00+2nw51198100 1.4 1018683
21:00+1nnw7128170 1.7 1020812
25 october, mon
mon2500:000nnw6128475 0.0 1022786
03:00−1nnw6118088 0.0 1025812
06:000nnw696591 0.0 10271058
09:00−1nnw6108219 0.0 1029688
12:00+2nnw675977 0.0 1030935
15:00+3nnw5654100 0.0 1031921
18:000nw23695 0.0 103345
21:00−1wnw22735 0.0 103317
26 october, tue
tue2600:00−1wsw23755 0.0 103346
03:00−2wsw36770 0.0 1033128
06:00−2sw38747 0.0 1032172
09:000sw496291 0.0 1032295
12:00+4wsw6945100 0.0 1030538
15:00+5sw6104469 0.0 1028668
18:00+2sw51254100 0.0 1027333
21:00+3sw61553100 0.0 1025436